GLD1794 SCIE-SAWC

Flight info

Callsign GLD1794
Flight time 2h 20m
Altitude 23000
Route PANEX3N PANEX V200 MON T102 BAL G550 ROGEL/N0457F370 UL670 ASADO DCT MOTNO MOTNO1U
Aircraft A320/M-SDE3FGHIRWY/LB1

Departure

Time 2026-05-09 18:23
Airport Carriel Sur International Airport (SCIE)

Arrival

Time 2026-05-09 20:43
Airport El Calafate - Commander Armando Tola International Airport (SAWC)
Time Latitude Longitude Altitude Speed Heading
2026-05-09 18:18 -36.77575 -73.06256 26 ft 11 kts 24°
2026-05-09 18:18 -36.77510 -73.06216 28 ft 10 kts 27°
2026-05-09 18:18 -36.77452 -73.06181 25 ft 9 kts 25°
2026-05-09 18:18 -36.77396 -73.06148 25 ft 9 kts 25°
2026-05-09 18:19 -36.77324 -73.06106 24 ft 16 kts 25°
2026-05-09 18:19 -36.77115 -73.05984 23 ft 14 kts 25°
2026-05-09 18:19 -36.77028 -73.05936 22 ft 13 kts 24°
2026-05-09 18:20 -36.76950 -73.05889 22 ft 12 kts 26°
2026-05-09 18:20 -36.76878 -73.05845 21 ft 11 kts 26°
2026-05-09 18:20 -36.76811 -73.05807 20 ft 10 kts 24°
2026-05-09 18:20 -36.76749 -73.05773 21 ft 9 kts 24°
2026-05-09 18:21 -36.76685 -73.05738 19 ft 12 kts 25°
2026-05-09 18:21 -36.76595 -73.05681 19 ft 17 kts 27°
2026-05-09 18:21 -36.76488 -73.05622 18 ft 16 kts 21°
2026-05-09 18:21 -36.76387 -73.05590 17 ft 14 kts 340°
2026-05-09 18:22 -36.76330 -73.05682 19 ft 13 kts 296°
2026-05-09 18:22 -36.76332 -73.05774 17 ft 10 kts 220°
2026-05-09 18:22 -36.76395 -73.05815 18 ft 12 kts 206°
2026-05-09 18:22 -36.76617 -73.05940 20 ft 69 kts 205°
2026-05-09 18:23 -36.77252 -73.06311 23 ft 130 kts 205°
2026-05-09 18:23 -36.78184 -73.06863 238 ft 156 kts 201°
2026-05-09 18:23 -36.79193 -73.07426 835 ft 161 kts 200°
2026-05-09 18:23 -36.80243 -73.07859 1549 ft 157 kts 180°
2026-05-09 18:24 -36.81359 -73.07846 2079 ft 168 kts 175°
2026-05-09 18:24 -36.82610 -73.07762 2353 ft 193 kts 174°
2026-05-09 18:24 -36.84029 -73.07662 2710 ft 216 kts 173°
2026-05-09 18:25 -36.87256 -73.07471 4040 ft 241 kts 174°
2026-05-09 18:25 -36.88956 -73.07392 4821 ft 248 kts 175°
2026-05-09 18:25 -36.90703 -73.07319 5594 ft 254 kts 175°
2026-05-09 18:25 -36.92487 -73.07247 6393 ft 259 kts 175°
2026-05-09 18:26 -36.94301 -73.07174 7177 ft 262 kts 175°
2026-05-09 18:26 -36.96133 -73.07104 7981 ft 264 kts 175°
2026-05-09 18:26 -36.97977 -73.07033 8801 ft 266 kts 175°
2026-05-09 18:26 -36.99831 -73.06962 9604 ft 267 kts 175°
2026-05-09 18:27 -37.01697 -73.06890 10317 ft 272 kts 175°
2026-05-09 18:27 -37.02984 -73.06837 10453 ft 287 kts 175°
2026-05-09 18:27 -37.05803 -73.06714 10665 ft 318 kts 175°
2026-05-09 18:27 -37.08096 -73.06615 10810 ft 339 kts 175°
2026-05-09 18:28 -37.10465 -73.06518 11245 ft 348 kts 176°
2026-05-09 18:28 -37.12901 -73.06427 11856 ft 352 kts 176°
2026-05-09 18:28 -37.15357 -73.06336 12548 ft 354 kts 176°
2026-05-09 18:28 -37.17821 -73.06244 13188 ft 356 kts 176°
2026-05-09 18:29 -37.20306 -73.06149 13828 ft 358 kts 176°
2026-05-09 18:29 -37.22807 -73.06050 14431 ft 360 kts 176°
2026-05-09 18:29 -37.25332 -73.05952 14980 ft 364 kts 177°
2026-05-09 18:29 -37.27873 -73.05855 15509 ft 367 kts 177°
2026-05-09 18:30 -37.30436 -73.05754 16033 ft 370 kts 177°
2026-05-09 18:30 -37.33024 -73.05654 16549 ft 374 kts 178°
2026-05-09 18:30 -37.35633 -73.05751 17089 ft 377 kts 183°
2026-05-09 18:30 -37.38262 -73.05977 17642 ft 380 kts 183°
2026-05-09 18:31 -37.40912 -73.06206 18147 ft 383 kts 183°
2026-05-09 18:31 -37.43582 -73.06436 18630 ft 386 kts 183°
2026-05-09 18:31 -37.46268 -73.06668 19066 ft 388 kts 183°
2026-05-09 18:31 -37.48971 -73.06904 19507 ft 390 kts 184°
2026-05-09 18:32 -37.51689 -73.07139 19946 ft 393 kts 184°
2026-05-09 18:32 -37.54424 -73.07375 20382 ft 395 kts 184°
2026-05-09 18:32 -37.57177 -73.07614 20809 ft 397 kts 184°
2026-05-09 18:32 -37.59938 -73.07853 21226 ft 399 kts 184°
2026-05-09 18:33 -37.62721 -73.08095 21627 ft 401 kts 184°
2026-05-09 18:33 -37.65518 -73.08340 22008 ft 403 kts 184°
2026-05-09 18:33 -37.68291 -73.08583 22363 ft 406 kts 184°
2026-05-09 18:33 -37.71123 -73.08830 22749 ft 408 kts 184°
2026-05-09 18:34 -37.73966 -73.09077 23123 ft 410 kts 184°
2026-05-09 18:34 -37.76817 -73.09316 23485 ft 412 kts 183°
2026-05-09 18:34 -37.79685 -73.09439 23843 ft 414 kts 181°
2026-05-09 18:34 -37.82571 -73.09439 24147 ft 416 kts 180°
2026-05-09 18:35 -37.85472 -73.09375 24440 ft 417 kts 179°
2026-05-09 18:35 -37.88385 -73.09288 24721 ft 419 kts 179°
2026-05-09 18:35 -37.91304 -73.09212 25039 ft 420 kts 180°
2026-05-09 18:35 -37.94223 -73.09160 25316 ft 420 kts 180°
2026-05-09 18:36 -37.97150 -73.09128 25587 ft 421 kts 180°
2026-05-09 18:36 -38.00088 -73.09103 25844 ft 422 kts 180°
2026-05-09 18:36 -38.03034 -73.09084 26082 ft 424 kts 180°
2026-05-09 18:36 -38.05989 -73.09068 26313 ft 425 kts 181°
2026-05-09 18:37 -38.08914 -73.09052 26537 ft 426 kts 181°
2026-05-09 18:37 -38.11880 -73.09032 26774 ft 427 kts 181°
2026-05-09 18:37 -38.14856 -73.09008 26990 ft 428 kts 181°
2026-05-09 18:37 -38.17838 -73.08987 27263 ft 427 kts 181°
2026-05-09 18:38 -38.20807 -73.08965 27559 ft 426 kts 181°
2026-05-09 18:38 -38.23773 -73.08943 27853 ft 425 kts 181°
2026-05-09 18:38 -38.26728 -73.08923 28154 ft 424 kts 181°
2026-05-09 18:40 -38.46269 -73.08765 30300 ft 418 kts 182°
2026-05-09 18:40 -38.49173 -73.08743 30592 ft 416 kts 182°
2026-05-09 18:40 -38.52066 -73.08720 30881 ft 415 kts 182°
2026-05-09 18:41 -38.54951 -73.08695 31155 ft 414 kts 182°
2026-05-09 18:41 -38.57830 -73.08670 31424 ft 413 kts 182°
2026-05-09 18:41 -38.60702 -73.08647 31691 ft 413 kts 182°
2026-05-09 18:41 -38.63571 -73.08626 31976 ft 412 kts 182°
2026-05-09 18:42 -38.66432 -73.08610 32257 ft 411 kts 182°
2026-05-09 18:42 -38.69286 -73.08592 32537 ft 409 kts 182°
2026-05-09 18:42 -38.72128 -73.08574 32810 ft 408 kts 182°
2026-05-09 18:42 -38.74967 -73.08551 33083 ft 407 kts 182°
2026-05-09 18:43 -38.77802 -73.08524 33352 ft 406 kts 182°
2026-05-09 18:43 -38.80627 -73.08497 33618 ft 406 kts 182°
2026-05-09 18:43 -38.83448 -73.08469 33858 ft 405 kts 182°
2026-05-09 18:43 -38.86267 -73.08445 34108 ft 405 kts 183°
2026-05-09 18:44 -38.89080 -73.08422 34353 ft 404 kts 183°
2026-05-09 18:44 -38.91888 -73.08401 34569 ft 403 kts 183°
2026-05-09 18:44 -38.94695 -73.08383 34791 ft 403 kts 183°
2026-05-09 18:44 -38.97495 -73.08363 35012 ft 402 kts 183°
2026-05-09 18:45 -39.00294 -73.08343 35223 ft 402 kts 183°
2026-05-09 18:45 -39.03090 -73.08321 35412 ft 402 kts 183°
2026-05-09 18:45 -39.05885 -73.08298 35588 ft 402 kts 183°
2026-05-09 18:45 -39.08683 -73.08274 35766 ft 402 kts 183°
2026-05-09 18:46 -39.11481 -73.08248 35941 ft 402 kts 183°
2026-05-09 18:46 -39.14280 -73.08223 36112 ft 402 kts 183°
2026-05-09 18:46 -39.17075 -73.08201 36284 ft 401 kts 183°
2026-05-09 18:46 -39.19864 -73.08179 36441 ft 401 kts 183°
2026-05-09 18:47 -39.22655 -73.08158 36588 ft 401 kts 183°
2026-05-09 18:47 -39.25445 -73.08136 36775 ft 400 kts 183°
2026-05-09 18:47 -39.28231 -73.08129 36938 ft 400 kts 184°
2026-05-09 18:47 -39.31008 -73.08148 37097 ft 399 kts 184°
2026-05-09 18:48 -39.33783 -73.08186 37266 ft 399 kts 184°
2026-05-09 18:48 -39.39356 -73.08282 37335 ft 402 kts 184°
2026-05-09 18:49 -39.44966 -73.08344 37352 ft 404 kts 184°
2026-05-09 18:49 -39.50589 -73.08388 37350 ft 404 kts 184°
2026-05-09 18:50 -39.56186 -73.08446 37356 ft 404 kts 184°
2026-05-09 18:50 -39.61813 -73.08498 37356 ft 405 kts 184°
2026-05-09 18:51 -39.67445 -73.08554 37373 ft 405 kts 184°
2026-05-09 18:51 -39.73085 -73.08594 37370 ft 406 kts 184°
2026-05-09 18:52 -39.78741 -73.08613 37368 ft 406 kts 184°
2026-05-09 18:52 -39.84379 -73.08625 37365 ft 406 kts 184°
2026-05-09 18:53 -39.90026 -73.08639 37362 ft 406 kts 184°
2026-05-09 18:53 -39.95681 -73.08663 37364 ft 406 kts 184°
2026-05-09 18:54 -40.01332 -73.08688 37367 ft 406 kts 184°
2026-05-09 18:54 -40.06993 -73.08702 37366 ft 406 kts 184°
2026-05-09 18:55 -40.12641 -73.08720 37378 ft 406 kts 184°
2026-05-09 18:55 -40.18285 -73.08740 37378 ft 405 kts 184°
2026-05-09 18:56 -40.23923 -73.08765 37376 ft 405 kts 184°
2026-05-09 18:56 -40.29559 -73.08794 37376 ft 405 kts 184°
2026-05-09 18:57 -40.35195 -73.08826 37383 ft 405 kts 185°
2026-05-09 18:57 -40.40828 -73.08859 37377 ft 405 kts 185°
2026-05-09 18:58 -40.46462 -73.08899 37372 ft 405 kts 185°
2026-05-09 18:58 -40.52095 -73.08935 37383 ft 405 kts 185°
2026-05-09 18:59 -40.57729 -73.08978 37377 ft 405 kts 185°
2026-05-09 18:59 -40.63359 -73.09017 37372 ft 405 kts 185°
2026-05-09 19:00 -40.68990 -73.09047 37368 ft 405 kts 185°
2026-05-09 19:00 -40.77436 -73.09104 37382 ft 405 kts 185°
2026-05-09 19:01 -40.83065 -73.09136 37392 ft 404 kts 185°
2026-05-09 19:01 -40.88656 -73.09173 37391 ft 404 kts 185°
2026-05-09 19:02 -40.94284 -73.09207 37410 ft 404 kts 185°
2026-05-09 19:02 -40.99913 -73.09215 37402 ft 404 kts 185°
2026-05-09 19:03 -41.05542 -73.09201 37398 ft 404 kts 185°
2026-05-09 19:03 -41.11169 -73.09188 37396 ft 404 kts 185°
2026-05-09 19:04 -41.16794 -73.09192 37403 ft 404 kts 185°
2026-05-09 19:04 -41.22415 -73.09202 37400 ft 404 kts 185°
2026-05-09 19:05 -41.28041 -73.09199 37393 ft 404 kts 185°
2026-05-09 19:05 -41.33668 -73.09189 37389 ft 404 kts 185°
2026-05-09 19:06 -41.39293 -73.09191 37402 ft 404 kts 185°
2026-05-09 19:06 -41.44924 -73.08907 37368 ft 409 kts 178°
2026-05-09 19:07 -41.50542 -73.07436 37391 ft 414 kts 172°
2026-05-09 19:07 -41.56096 -73.05574 37400 ft 414 kts 172°
2026-05-09 19:08 -41.61708 -73.03835 37392 ft 413 kts 174°
2026-05-09 19:08 -41.67328 -73.02260 37383 ft 413 kts 174°
2026-05-09 19:09 -41.72963 -73.00704 37387 ft 413 kts 174°
2026-05-09 19:09 -41.78592 -72.99122 37400 ft 414 kts 174°
2026-05-09 19:10 -41.84231 -72.97509 37394 ft 414 kts 174°
2026-05-09 19:10 -41.89863 -72.95885 37395 ft 414 kts 174°
2026-05-09 19:11 -41.95504 -72.94260 37407 ft 414 kts 174°
2026-05-09 19:11 -42.01138 -72.92649 37405 ft 414 kts 174°
2026-05-09 19:12 -42.06771 -72.91044 37404 ft 413 kts 174°
2026-05-09 19:12 -42.12361 -72.89441 37403 ft 413 kts 174°
2026-05-09 19:13 -42.17998 -72.87812 37410 ft 414 kts 174°
2026-05-09 19:13 -42.23629 -72.86181 37404 ft 414 kts 174°
2026-05-09 19:14 -42.29258 -72.84560 37399 ft 414 kts 174°
2026-05-09 19:14 -42.34889 -72.82931 37414 ft 414 kts 174°
2026-05-09 19:15 -42.40519 -72.81302 37405 ft 414 kts 174°
2026-05-09 19:15 -42.46107 -72.79646 37401 ft 414 kts 174°
2026-05-09 19:16 -42.51727 -72.77934 37398 ft 414 kts 174°
2026-05-09 19:16 -42.57346 -72.76213 37404 ft 414 kts 174°
2026-05-09 19:17 -42.62963 -72.74518 37395 ft 413 kts 174°
2026-05-09 19:17 -42.68576 -72.72822 37392 ft 413 kts 174°
2026-05-09 19:18 -42.74187 -72.71112 37398 ft 413 kts 174°
2026-05-09 19:18 -42.79807 -72.69405 37400 ft 414 kts 174°
2026-05-09 19:19 -42.85429 -72.67691 37392 ft 414 kts 174°
2026-05-09 19:19 -42.91053 -72.65968 37399 ft 414 kts 174°
2026-05-09 19:20 -42.96677 -72.64247 37385 ft 415 kts 174°
2026-05-09 19:20 -43.02311 -72.62517 37386 ft 416 kts 174°
2026-05-09 19:21 -43.07005 -72.61073 37386 ft 415 kts 174°
2026-05-09 19:21 -43.12638 -72.59343 37394 ft 413 kts 175°
2026-05-09 19:22 -43.18235 -72.57622 37396 ft 412 kts 175°
2026-05-09 19:22 -43.23838 -72.55898 37393 ft 412 kts 175°
2026-05-09 19:23 -43.29431 -72.54162 37398 ft 412 kts 175°
2026-05-09 19:23 -43.35019 -72.52426 37392 ft 411 kts 175°
2026-05-09 19:24 -43.40601 -72.50692 37389 ft 412 kts 175°
2026-05-09 19:24 -43.46194 -72.48951 37410 ft 412 kts 175°
2026-05-09 19:25 -43.51738 -72.47231 37385 ft 410 kts 175°
2026-05-09 19:25 -43.57309 -72.45482 37393 ft 412 kts 175°
2026-05-09 19:26 -43.62901 -72.43733 37391 ft 412 kts 175°
2026-05-09 19:26 -43.68475 -72.41980 37370 ft 410 kts 175°
2026-05-09 19:27 -43.74051 -72.40230 37379 ft 411 kts 175°
2026-05-09 19:27 -43.79630 -72.38470 37381 ft 411 kts 175°
2026-05-09 19:28 -43.85211 -72.36716 37403 ft 411 kts 176°
2026-05-09 19:28 -43.90784 -72.34951 37397 ft 411 kts 176°
2026-05-09 19:29 -43.96348 -72.33175 37392 ft 410 kts 176°
2026-05-09 19:29 -44.01908 -72.31410 37392 ft 409 kts 176°
2026-05-09 19:30 -44.07437 -72.29656 37392 ft 407 kts 176°
2026-05-09 19:30 -44.12962 -72.27898 37379 ft 406 kts 176°
2026-05-09 19:31 -44.18445 -72.26144 37399 ft 406 kts 176°
2026-05-09 19:31 -44.23959 -72.24376 37353 ft 407 kts 176°
2026-05-09 19:32 -44.29487 -72.22602 37349 ft 408 kts 176°
2026-05-09 19:32 -44.35036 -72.20826 37349 ft 410 kts 176°
2026-05-09 19:33 -44.40603 -72.19037 37373 ft 411 kts 176°
2026-05-09 19:33 -44.46173 -72.17233 37363 ft 411 kts 176°
2026-05-09 19:34 -44.51754 -72.15428 37365 ft 412 kts 176°
2026-05-09 19:34 -44.57337 -72.13625 37373 ft 411 kts 176°
2026-05-09 19:35 -44.62920 -72.11812 37376 ft 412 kts 176°
2026-05-09 19:35 -44.68507 -72.09988 37370 ft 412 kts 176°
2026-05-09 19:36 -44.74082 -72.08169 37364 ft 411 kts 176°
2026-05-09 19:36 -44.79659 -72.06358 37372 ft 411 kts 177°
2026-05-09 19:37 -44.85227 -72.04542 37361 ft 410 kts 177°
2026-05-09 19:37 -44.90786 -72.02719 37350 ft 410 kts 177°
2026-05-09 19:38 -44.96340 -72.00892 37350 ft 409 kts 177°
2026-05-09 19:38 -45.01873 -71.99070 37338 ft 408 kts 177°
2026-05-09 19:39 -45.07401 -71.97252 37327 ft 408 kts 177°
2026-05-09 19:39 -45.12931 -71.95429 37343 ft 408 kts 177°
2026-05-09 19:40 -45.18469 -71.93588 37337 ft 409 kts 177°
2026-05-09 19:40 -45.24013 -71.91747 37318 ft 409 kts 177°
2026-05-09 19:41 -45.29529 -71.89963 37309 ft 408 kts 178°
2026-05-09 19:41 -45.35076 -71.88311 37302 ft 407 kts 179°
2026-05-09 19:42 -45.40620 -71.86680 37291 ft 407 kts 179°
2026-05-09 19:42 -45.46166 -71.85029 37259 ft 408 kts 178°
2026-05-09 19:43 -45.51730 -71.83339 37288 ft 409 kts 178°
2026-05-09 19:43 -45.57298 -71.81645 37297 ft 409 kts 178°
2026-05-09 19:44 -45.62874 -71.79951 37290 ft 409 kts 178°
2026-05-09 19:44 -45.68446 -71.78259 37279 ft 409 kts 178°
2026-05-09 19:45 -45.74019 -71.76559 37262 ft 409 kts 178°
2026-05-09 19:45 -45.79585 -71.74851 37236 ft 408 kts 178°
2026-05-09 19:46 -45.85140 -71.73147 37218 ft 408 kts 178°
2026-05-09 19:46 -45.90683 -71.71446 37219 ft 406 kts 180°
2026-05-09 19:47 -45.96216 -71.70549 37202 ft 399 kts 185°
2026-05-09 19:47 -46.01719 -71.69767 37200 ft 400 kts 184°
2026-05-09 19:48 -46.07268 -71.68965 37208 ft 400 kts 185°
2026-05-09 19:48 -46.12813 -71.68173 37236 ft 401 kts 185°
2026-05-09 19:49 -46.18372 -71.67376 37226 ft 401 kts 185°
2026-05-09 19:49 -46.23932 -71.66573 37215 ft 401 kts 185°
2026-05-09 19:50 -46.29479 -71.66030 37214 ft 398 kts 187°
2026-05-09 19:50 -46.35016 -71.65649 37230 ft 398 kts 188°
2026-05-09 19:51 -46.40560 -71.65235 37164 ft 399 kts 187°
2026-05-09 19:51 -46.46118 -71.64782 37165 ft 400 kts 187°
2026-05-09 19:52 -46.51686 -71.64315 37165 ft 401 kts 187°
2026-05-09 19:52 -46.57234 -71.63839 37173 ft 402 kts 187°
2026-05-09 19:53 -46.62831 -71.63355 37177 ft 403 kts 187°
2026-05-09 19:53 -46.68435 -71.62880 37168 ft 403 kts 187°
2026-05-09 19:54 -46.74045 -71.62417 37203 ft 404 kts 187°
2026-05-09 19:54 -46.79666 -71.61882 37181 ft 406 kts 186°
2026-05-09 19:55 -46.85319 -71.61238 37188 ft 408 kts 186°
2026-05-09 19:56 -46.93807 -71.60269 37188 ft 408 kts 186°
2026-05-09 19:56 -46.99449 -71.59660 37173 ft 405 kts 187°
2026-05-09 19:57 -47.05069 -71.59055 37173 ft 405 kts 187°
2026-05-09 19:57 -47.10695 -71.58440 37177 ft 405 kts 187°
2026-05-09 19:58 -47.16327 -71.57828 37226 ft 405 kts 187°
2026-05-09 19:58 -47.21945 -71.57206 37211 ft 404 kts 187°
2026-05-09 19:59 -47.27548 -71.56583 37207 ft 403 kts 187°
2026-05-09 19:59 -47.33135 -71.55964 37195 ft 402 kts 187°
2026-05-09 20:00 -47.38721 -71.55350 37195 ft 402 kts 187°
2026-05-09 20:00 -47.44256 -71.54732 37198 ft 402 kts 187°
2026-05-09 20:01 -47.49842 -71.54107 37205 ft 403 kts 187°
2026-05-09 20:01 -47.55429 -71.53492 37203 ft 402 kts 187°
2026-05-09 20:02 -47.61003 -71.52869 37180 ft 399 kts 187°
2026-05-09 20:02 -47.66537 -71.52239 37178 ft 398 kts 187°
2026-05-09 20:03 -47.74831 -71.51314 37184 ft 399 kts 187°
2026-05-09 20:03 -47.80371 -71.50691 37249 ft 399 kts 187°
2026-05-09 20:04 -47.84944 -71.50169 37169 ft 395 kts 188°
2026-05-09 20:04 -47.90428 -71.49545 37171 ft 395 kts 188°
2026-05-09 20:05 -47.95914 -71.48934 37157 ft 396 kts 188°
2026-05-09 20:05 -47.98674 -71.48373 37156 ft 411 kts 178°
2026-05-09 20:05 -48.01415 -71.46793 37210 ft 435 kts 164°
2026-05-09 20:06 -48.03940 -71.44078 37195 ft 463 kts 148°
2026-05-09 20:06 -48.06020 -71.40224 37183 ft 489 kts 134°
2026-05-09 20:06 -48.09607 -71.31483 37185 ft 494 kts 134°
2026-05-09 20:07 -48.13306 -71.22876 37165 ft 479 kts 143°
2026-05-09 20:07 -48.15590 -71.19410 37164 ft 457 kts 155°
2026-05-09 20:07 -48.18141 -71.16773 37162 ft 436 kts 166°
2026-05-09 20:08 -48.20845 -71.14931 37179 ft 418 kts 175°
2026-05-09 20:08 -48.26283 -71.13432 37165 ft 387 kts 192°
2026-05-09 20:09 -48.31560 -71.13924 37170 ft 379 kts 196°
2026-05-09 20:09 -48.36825 -71.14525 37166 ft 380 kts 196°
2026-05-09 20:10 -48.42098 -71.15130 37163 ft 381 kts 196°
2026-05-09 20:10 -48.47374 -71.15740 37142 ft 380 kts 197°
2026-05-09 20:11 -48.52653 -71.16369 37143 ft 381 kts 197°
2026-05-09 20:11 -48.57952 -71.16995 37153 ft 382 kts 196°
2026-05-09 20:12 -48.63258 -71.17625 37153 ft 383 kts 196°
2026-05-09 20:12 -48.68560 -71.18238 37146 ft 381 kts 197°
2026-05-09 20:13 -48.73849 -71.18851 37146 ft 381 kts 197°
2026-05-09 20:13 -48.79141 -71.19484 37144 ft 382 kts 197°
2026-05-09 20:14 -48.84439 -71.20106 37151 ft 382 kts 197°
2026-05-09 20:14 -48.89705 -71.20725 37145 ft 380 kts 197°
2026-05-09 20:15 -48.94953 -71.21353 37147 ft 378 kts 197°
2026-05-09 20:15 -49.00194 -71.21991 37117 ft 378 kts 197°
2026-05-09 20:16 -49.05436 -71.22616 37129 ft 378 kts 197°
2026-05-09 20:16 -49.10684 -71.23248 37200 ft 378 kts 197°
2026-05-09 20:17 -49.15942 -71.23882 37138 ft 379 kts 197°
2026-05-09 20:17 -49.21208 -71.24502 37133 ft 380 kts 197°
2026-05-09 20:18 -49.26478 -71.25134 37135 ft 380 kts 197°
2026-05-09 20:18 -49.31756 -71.25774 37139 ft 381 kts 197°
2026-05-09 20:19 -49.37037 -71.26410 37033 ft 380 kts 197°
2026-05-09 20:19 -49.39664 -71.26729 36772 ft 378 kts 197°
2026-05-09 20:19 -49.42279 -71.27046 36499 ft 376 kts 198°
2026-05-09 20:19 -49.44878 -71.27357 35880 ft 373 kts 198°
2026-05-09 20:20 -49.47458 -71.27667 35207 ft 370 kts 198°
2026-05-09 20:20 -49.50013 -71.27976 34500 ft 367 kts 199°
2026-05-09 20:20 -49.52549 -71.28282 33726 ft 364 kts 199°
2026-05-09 20:20 -49.55071 -71.28588 32969 ft 361 kts 199°
2026-05-09 20:21 -49.57569 -71.28898 32178 ft 360 kts 199°
2026-05-09 20:21 -49.60042 -71.29328 31389 ft 351 kts 204°
2026-05-09 20:21 -49.62344 -71.30278 30530 ft 342 kts 211°
2026-05-09 20:21 -49.64497 -71.31754 29575 ft 337 kts 216°
2026-05-09 20:22 -49.66600 -71.33401 28580 ft 340 kts 216°
2026-05-09 20:22 -49.68727 -71.35049 27612 ft 343 kts 215°
2026-05-09 20:22 -49.70879 -71.36703 26670 ft 346 kts 214°
2026-05-09 20:22 -49.73050 -71.38371 25746 ft 350 kts 214°
2026-05-09 20:23 -49.75244 -71.40061 24849 ft 355 kts 214°
2026-05-09 20:23 -49.77472 -71.41784 23968 ft 361 kts 214°
2026-05-09 20:23 -49.79720 -71.43528 22947 ft 362 kts 213°
2026-05-09 20:23 -49.81981 -71.45283 21915 ft 364 kts 213°
2026-05-09 20:24 -49.84246 -71.47042 21002 ft 364 kts 212°
2026-05-09 20:24 -49.86505 -71.48791 20214 ft 361 kts 212°
2026-05-09 20:24 -49.88743 -71.50524 19464 ft 358 kts 212°
2026-05-09 20:24 -49.90959 -71.52246 18729 ft 355 kts 211°
2026-05-09 20:25 -49.93164 -71.53963 17949 ft 353 kts 211°
2026-05-09 20:25 -49.95347 -71.55665 17260 ft 349 kts 211°
2026-05-09 20:25 -49.97503 -71.57355 16571 ft 345 kts 211°
2026-05-09 20:25 -49.99637 -71.59031 15933 ft 342 kts 211°
2026-05-09 20:26 -50.01752 -71.60690 15298 ft 339 kts 210°
2026-05-09 20:26 -50.03852 -71.62336 14662 ft 337 kts 210°
2026-05-09 20:26 -50.05937 -71.63971 14059 ft 335 kts 210°
2026-05-09 20:26 -50.08005 -71.65596 13403 ft 331 kts 210°
2026-05-09 20:27 -50.10054 -71.67209 12826 ft 327 kts 210°
2026-05-09 20:27 -50.12073 -71.68804 12250 ft 324 kts 210°
2026-05-09 20:27 -50.13929 -71.70737 11665 ft 320 kts 222°
2026-05-09 20:27 -50.15390 -71.73280 11371 ft 308 kts 234°
2026-05-09 20:28 -50.16389 -71.76150 11210 ft 295 kts 246°
2026-05-09 20:28 -50.16920 -71.79109 11112 ft 271 kts 257°
2026-05-09 20:28 -50.17090 -71.81894 11116 ft 245 kts 260°
2026-05-09 20:29 -50.17346 -71.86921 11105 ft 229 kts 259°
2026-05-09 20:29 -50.17481 -71.89409 10649 ft 228 kts 259°
2026-05-09 20:29 -50.17610 -71.91860 10431 ft 227 kts 259°
2026-05-09 20:29 -50.17738 -71.94312 10296 ft 227 kts 260°
2026-05-09 20:30 -50.17858 -71.96711 10180 ft 218 kts 260°
2026-05-09 20:30 -50.17976 -71.99063 10073 ft 218 kts 260°
2026-05-09 20:30 -50.18094 -72.01414 9701 ft 216 kts 260°
2026-05-09 20:30 -50.18212 -72.03741 9378 ft 214 kts 261°
2026-05-09 20:31 -50.18328 -72.06051 9076 ft 213 kts 261°
2026-05-09 20:31 -50.18441 -72.08349 8776 ft 212 kts 261°
2026-05-09 20:31 -50.18553 -72.10634 8471 ft 211 kts 261°
2026-05-09 20:31 -50.18665 -72.12917 8094 ft 210 kts 262°
2026-05-09 20:32 -50.18776 -72.15192 7791 ft 211 kts 262°
2026-05-09 20:32 -50.18886 -72.17477 7485 ft 211 kts 262°
2026-05-09 20:32 -50.18995 -72.19761 7207 ft 211 kts 263°
2026-05-09 20:32 -50.19106 -72.22049 6899 ft 210 kts 263°
2026-05-09 20:33 -50.19215 -72.24318 6596 ft 210 kts 263°
2026-05-09 20:33 -50.19323 -72.26587 6274 ft 209 kts 264°
2026-05-09 20:33 -50.19432 -72.28854 5967 ft 210 kts 264°
2026-05-09 20:33 -50.19585 -72.31115 5655 ft 209 kts 254°
2026-05-09 20:34 -50.20303 -72.33006 5359 ft 209 kts 225°
2026-05-09 20:34 -50.21620 -72.34008 5038 ft 220 kts 194°
2026-05-09 20:34 -50.23185 -72.33927 4687 ft 227 kts 181°
2026-05-09 20:34 -50.24747 -72.33697 4327 ft 221 kts 181°
2026-05-09 20:35 -50.26262 -72.33471 3999 ft 217 kts 181°
2026-05-09 20:35 -50.27763 -72.33248 3666 ft 217 kts 179°
2026-05-09 20:35 -50.29176 -72.32376 3332 ft 229 kts 142°
2026-05-09 20:35 -50.29907 -72.30203 3131 ft 231 kts 99°
2026-05-09 20:36 -50.29896 -72.27700 2937 ft 229 kts 83°
2026-05-09 20:36 -50.29653 -72.25298 2754 ft 220 kts 79°
2026-05-09 20:36 -50.29384 -72.22993 2605 ft 211 kts 80°
2026-05-09 20:36 -50.29152 -72.20793 2374 ft 198 kts 81°
2026-05-09 20:37 -50.28964 -72.18749 2171 ft 183 kts 82°
2026-05-09 20:37 -50.28812 -72.16859 1915 ft 167 kts 82°
2026-05-09 20:37 -50.28682 -72.15116 1685 ft 157 kts 83°
2026-05-09 20:37 -50.28554 -72.13458 1477 ft 148 kts 76°
2026-05-09 20:38 -50.28176 -72.11939 1575 ft 152 kts 56°
2026-05-09 20:38 -50.27522 -72.10657 1595 ft 150 kts 44°
2026-05-09 20:38 -50.26802 -72.09461 1605 ft 151 kts 43°
2026-05-09 20:38 -50.26070 -72.08282 1612 ft 151 kts 43°
2026-05-09 20:39 -50.25351 -72.07091 1604 ft 151 kts 47°
2026-05-09 20:39 -50.24789 -72.05703 1604 ft 153 kts 64°
2026-05-09 20:39 -50.24528 -72.04090 1618 ft 154 kts 79°
2026-05-09 20:39 -50.24377 -72.02441 1609 ft 153 kts 81°
2026-05-09 20:40 -50.24241 -72.00793 1613 ft 153 kts 82°
2026-05-09 20:40 -50.24106 -71.99138 1613 ft 153 kts 82°
2026-05-09 20:40 -50.23972 -71.97490 1606 ft 153 kts 83°
2026-05-09 20:40 -50.24078 -71.95852 1623 ft 153 kts 110°
2026-05-09 20:41 -50.24713 -71.94573 1684 ft 151 kts 154°
2026-05-09 20:41 -50.25708 -71.94243 1778 ft 147 kts 187°
2026-05-09 20:41 -50.26588 -71.94855 1626 ft 140 kts 230°
2026-05-09 20:41 -50.27103 -71.96120 1531 ft 137 kts 244°
2026-05-09 20:42 -50.27498 -71.97482 1362 ft 138 kts 256°
2026-05-09 20:42 -50.27658 -71.98955 1211 ft 138 kts 266°
2026-05-09 20:42 -50.27735 -72.00447 1072 ft 138 kts 266°
2026-05-09 20:42 -50.27816 -72.01939 903 ft 138 kts 267°
2026-05-09 20:43 -50.27908 -72.03419 696 ft 136 kts 266°
2026-05-09 20:43 -50.27988 -72.04792 650 ft 112 kts 264°
2026-05-09 20:43 -50.28045 -72.05748 650 ft 63 kts 264°
2026-05-09 20:43 -50.28073 -72.06113 652 ft 22 kts 255°
2026-05-09 20:44 -50.28142 -72.06268 654 ft 15 kts 234°
2026-05-09 20:44 -50.28195 -72.06380 655 ft 10 kts 228°
2026-05-09 20:44 -50.28256 -72.06402 654 ft 8 kts 172°
2026-05-09 20:44 -50.28302 -72.06358 654 ft 7 kts 128°
2026-05-09 20:45 -50.28312 -72.06284 654 ft 7 kts 88°
2026-05-09 20:45 -50.28304 -72.06164 653 ft 15 kts 83°
2026-05-09 20:45 -50.28294 -72.05977 652 ft 17 kts 86°
2026-05-09 20:45 -50.28287 -72.05858 652 ft 16 kts 83°
2026-05-09 20:46 -50.28276 -72.05695 651 ft 14 kts 85°
2026-05-09 20:46 -50.28272 -72.05571 651 ft 10 kts 98°
2026-05-09 20:46 -50.28318 -72.05500 653 ft 9 kts 148°
2026-05-09 20:46 -50.28353 -72.05469 650 ft 0 kts 152°